This is the latest recevied weather packets stored in our database for station/object SV9TNF-2. If no packets are shown the sender has not sent any weather packets the latest 10 day(s).
| Time | Temp. | Humidity | Pressure | Rain* | Wind** | Luminosity | Snow |
|---|---|---|---|---|---|---|---|
| 1777512880 | 13.89° C | 57% | 1021.7 hPa | 0 mm | 3.13 m/s, 248° | - | - |
| 1777512580 | 13.89° C | 56% | 1021.7 hPa | 0 mm | 0 m/s | - | - |
| 1777512280 | 13.89° C | 57% | 1021.7 hPa | 0 mm | 1.34 m/s, 359° | - | - |
| 1777511980 | 13.89° C | 58% | 1021.7 hPa | 0 mm | 0.45 m/s, 234° | - | - |
| 1777511680 | 13.89° C | 58% | 1021.7 hPa | 0 mm | 0.45 m/s, 210° | - | - |
| 1777511380 | 14.44° C | 57% | 1021 hPa | 0 mm | 4.47 m/s, 207° | - | - |
| 1777511079 | 14.44° C | 56% | 1021 hPa | 0 mm | 5.81 m/s, 175° | - | - |
| 1777510779 | 14.44° C | 57% | 1021.7 hPa | 0 mm | 8.05 m/s, 199° | - | - |
| 1777510479 | 14.44° C | 56% | 1021.7 hPa | 0 mm | 7.15 m/s, 170° | - | - |
| 1777510179 | 13.89° C | 58% | 1021.7 hPa | 0 mm | 4.02 m/s, 187° | - | - |
| 1777509879 | 13.89° C | 59% | 1021.7 hPa | 0 mm | 4.47 m/s, 194° | - | - |
| 1777509579 | 13.89° C | 59% | 1021.7 hPa | 0 mm | 4.47 m/s, 231° | - | - |
| 1777509279 | 14.44° C | 58% | 1021 hPa | 0 mm | 4.02 m/s, 243° | - | - |
| 1777508979 | 14.44° C | 57% | 1021 hPa | 0 mm | 4.92 m/s, 196° | - | - |
| 1777508679 | 14.44° C | 56% | 1021.7 hPa | 0 mm | 4.47 m/s, 221° | - | - |
| 1777508379 | 14.44° C | 57% | 1021.7 hPa | 0 mm | 6.26 m/s, 161° | - | - |
| 1777508078 | 14.44° C | 57% | 1021.7 hPa | 0 mm | 6.26 m/s, 180° | - | - |
| 1777507778 | 14.44° C | 58% | 1021.7 hPa | 0 mm | 2.68 m/s, 243° | - | - |
| 1777507478 | 14.44° C | 58% | 1021.7 hPa | 0 mm | 3.13 m/s, 256° | - | - |
| 1777507178 | 13.89° C | 59% | 1022 hPa | 0 mm | 2.24 m/s, 211° | - | - |
| 1777506878 | 13.89° C | 59% | 1022 hPa | 0 mm | 2.24 m/s, 249° | - | - |
| 1777506578 | 14.44° C | 58% | 1022 hPa | 0 mm | 3.13 m/s, 211° | - | - |
| 1777506278 | 14.44° C | 59% | 1021.7 hPa | 0 mm | 4.92 m/s, 238° | - | - |
| 1777505978 | 14.44° C | 58% | 1021.7 hPa | 0 mm | 2.24 m/s, 202° | - | - |
| 1777505678 | 14.44° C | 59% | 1022 hPa | 0 mm | 1.79 m/s, 257° | - | - |
* Rain latest hour (hover to see other rain measurements)
** Current wind speed in m/s (hover to see current wind gust speed)